DAL8385 MMUN-KIAH

Flight info

Callsign DAL8385
Flight time N/A
Altitude 35000
Route NOSUG2A NOSUG UT27 OMVIP UT45 ALKIM DCT KEHLI A766 KELPP NNCEE2
Aircraft A333/H-SDE3GHIJ2J3J5M1RVWXY/LB2D1

Departure

Time 2026-04-30 22:06
Airport Cancún International Airport (MMUN)

Arrival

Time N/A
Airport George Bush Intercontinental Airport (KIAH)
Time Latitude Longitude Altitude Speed Heading
2026-04-30 21:40 21.03623 -86.87041 37 ft 0 kts 34°
2026-04-30 21:55 21.03616 -86.87047 37 ft 1 kts 34°
2026-04-30 21:56 21.03608 -86.87053 37 ft 2 kts 30°
2026-04-30 21:56 21.03593 -86.87060 37 ft 2 kts 12°
2026-04-30 21:56 21.03577 -86.87062 37 ft 2 kts 359°
2026-04-30 21:56 21.03563 -86.87060 37 ft 2 kts 347°
2026-04-30 21:57 21.03550 -86.87057 37 ft 2 kts 335°
2026-04-30 21:57 21.03538 -86.87050 37 ft 2 kts 324°
2026-04-30 21:57 21.03527 -86.87040 37 ft 2 kts 312°
2026-04-30 21:57 21.03520 -86.87032 38 ft 1 kts 303°
2026-04-30 21:58 21.03518 -86.87028 38 ft 0 kts 303°
2026-04-30 22:01 21.03524 -86.87038 37 ft 6 kts 302°
2026-04-30 22:01 21.03540 -86.87103 36 ft 11 kts 239°
2026-04-30 22:01 21.03530 -86.87179 35 ft 12 kts 295°
2026-04-30 22:02 21.03590 -86.87281 33 ft 22 kts 303°
2026-04-30 22:02 21.03686 -86.87434 30 ft 28 kts 303°
2026-04-30 22:02 21.03808 -86.87630 29 ft 32 kts 303°
2026-04-30 22:02 21.03934 -86.87830 29 ft 36 kts 303°
2026-04-30 22:03 21.04052 -86.88020 30 ft 27 kts 304°
2026-04-30 22:03 21.04153 -86.88181 32 ft 25 kts 304°
2026-04-30 22:03 21.04228 -86.88302 35 ft 24 kts 303°
2026-04-30 22:03 21.04316 -86.88440 37 ft 22 kts 304°
2026-04-30 22:04 21.04404 -86.88582 39 ft 21 kts 303°
2026-04-30 22:04 21.04481 -86.88705 40 ft 20 kts 304°
2026-04-30 22:04 21.04635 -86.88959 41 ft 18 kts 291°
2026-04-30 22:05 21.04568 -86.89056 39 ft 17 kts 210°
2026-04-30 22:05 21.04479 -86.89013 38 ft 15 kts 124°
2026-04-30 22:05 21.04406 -86.88897 38 ft 36 kts 123°
2026-04-30 22:05 21.04137 -86.88466 35 ft 109 kts 124°
2026-04-30 22:06 21.03618 -86.87640 30 ft 168 kts 123°
2026-04-30 22:06 21.02425 -86.85741 1100 ft 181 kts 125°
2026-04-30 22:06 21.01683 -86.84523 2058 ft 184 kts 115°
2026-04-30 22:07 21.01734 -86.82894 3207 ft 196 kts 66°
2026-04-30 22:07 21.02783 -86.81823 4097 ft 210 kts 26°
2026-04-30 22:07 21.05340 -86.80600 5436 ft 213 kts 31°
2026-04-30 22:08 21.06725 -86.79765 6198 ft 216 kts 32°
2026-04-30 22:08 21.08463 -86.78674 7217 ft 215 kts 34°
2026-04-30 22:08 21.10053 -86.78073 7980 ft 222 kts
2026-04-30 22:08 21.11277 -86.78275 8527 ft 225 kts 349°
2026-04-30 22:09 21.13094 -86.78679 9312 ft 226 kts 352°
2026-04-30 22:09 21.14915 -86.79059 9795 ft 242 kts 352°
2026-04-30 22:09 21.16774 -86.79440 10192 ft 261 kts 352°
2026-04-30 22:09 21.18610 -86.79822 10597 ft 277 kts 352°
2026-04-30 22:10 21.20576 -86.80207 10940 ft 295 kts 353°
2026-04-30 22:10 21.22677 -86.80615 11248 ft 314 kts 352°
2026-04-30 22:10 21.24853 -86.81039 11537 ft 331 kts 352°
2026-04-30 22:10 21.27225 -86.81499 11789 ft 349 kts 352°
2026-04-30 22:11 21.32235 -86.82474 12465 ft 373 kts 352°
2026-04-30 22:11 21.34796 -86.82971 13139 ft 374 kts 352°
2026-04-30 22:11 21.37408 -86.83478 13724 ft 376 kts 352°
2026-04-30 22:12 21.40014 -86.83985 14198 ft 382 kts 352°
2026-04-30 22:12 21.42663 -86.84500 14745 ft 385 kts 351°
2026-04-30 22:12 21.45330 -86.85020 15290 ft 388 kts 351°
2026-04-30 22:12 21.48049 -86.85548 15792 ft 391 kts 351°
2026-04-30 22:13 21.50754 -86.86076 16298 ft 394 kts 351°
2026-04-30 22:13 21.53468 -86.86605 16808 ft 397 kts 351°
2026-04-30 22:13 21.56259 -86.87148 17311 ft 400 kts 351°
2026-04-30 22:13 21.59016 -86.87685 17817 ft 402 kts 350°
2026-04-30 22:14 21.61841 -86.88236 18283 ft 405 kts 350°
2026-04-30 22:14 21.64652 -86.88784 18802 ft 407 kts 350°
2026-04-30 22:14 21.67474 -86.89335 19237 ft 410 kts 349°
2026-04-30 22:14 21.70313 -86.89889 19717 ft 411 kts 349°
2026-04-30 22:15 21.73156 -86.90445 20186 ft 412 kts 349°
2026-04-30 22:15 21.76013 -86.91003 20579 ft 415 kts 349°
2026-04-30 22:15 21.76384 -86.91076 20635 ft 416 kts 349°
2026-04-30 22:15 21.78618 -86.91513 20937 ft 418 kts 349°
2026-04-30 22:16 21.81531 -86.92083 21326 ft 420 kts 349°
2026-04-30 22:16 21.84435 -86.92651 21705 ft 422 kts 349°
2026-04-30 22:17 21.93423 -86.93581 22810 ft 428 kts 354°
2026-04-30 22:17 21.96493 -86.93843 23177 ft 430 kts 354°
2026-04-30 22:17 22.02556 -86.94362 23905 ft 434 kts 354°
2026-04-30 22:18 22.05611 -86.94622 24250 ft 435 kts 354°
2026-04-30 22:18 22.11747 -86.95148 24908 ft 440 kts 354°
2026-04-30 22:19 22.17946 -86.95678 25577 ft 444 kts 354°
2026-04-30 22:19 22.21113 -86.95950 25893 ft 446 kts 354°
2026-04-30 22:19 22.27377 -86.96487 26543 ft 450 kts 354°
2026-04-30 22:20 22.30542 -86.96758 26855 ft 452 kts 354°
2026-04-30 22:20 22.36904 -86.97304 27595 ft 453 kts 354°
2026-04-30 22:20 22.40113 -86.97580 27853 ft 456 kts 355°
2026-04-30 22:21 22.43283 -86.97853 28130 ft 458 kts 355°
2026-04-30 22:21 22.46523 -86.98131 28618 ft 456 kts 355°
2026-04-30 22:21 22.49668 -86.98402 29120 ft 454 kts 355°
2026-04-30 22:21 22.52905 -86.98680 29567 ft 453 kts 355°
2026-04-30 22:22 22.56052 -86.98950 30014 ft 452 kts 355°
2026-04-30 22:22 22.59225 -86.99223 30495 ft 451 kts 354°
2026-04-30 22:22 22.62363 -86.99494 31017 ft 449 kts 354°
2026-04-30 22:22 22.65511 -86.99765 31548 ft 446 kts 354°
2026-04-30 22:23 22.68622 -87.00034 32100 ft 443 kts 354°
2026-04-30 22:23 22.71664 -87.00296 32635 ft 440 kts 354°
2026-04-30 22:23 22.74742 -87.00562 33221 ft 437 kts 354°
2026-04-30 22:23 22.77768 -87.00822 33884 ft 432 kts 354°
2026-04-30 22:24 22.80612 -87.01068 34385 ft 431 kts 353°
2026-04-30 22:24 22.83672 -87.01334 34904 ft 429 kts 353°
2026-04-30 22:24 22.89589 -87.01846 34866 ft 425 kts 353°
2026-04-30 22:25 22.95521 -87.02361 34882 ft 425 kts 353°
2026-04-30 22:25 23.01415 -87.02871 34899 ft 428 kts 353°
2026-04-30 22:26 23.07311 -87.04148 34888 ft 439 kts 333°
2026-04-30 22:26 23.09775 -87.05926 34921 ft 444 kts 320°
2026-04-30 22:27 23.14953 -87.10369 34900 ft 453 kts 323°
2026-04-30 22:27 23.22425 -87.16417 34897 ft 443 kts 323°
2026-04-30 22:28 23.29828 -87.22392 34896 ft 445 kts 323°
2026-04-30 22:29 23.39724 -87.30389 34891 ft 445 kts 323°
2026-04-30 22:31 23.57015 -87.44396 34887 ft 445 kts 322°
2026-04-30 22:32 23.69345 -87.54417 34885 ft 446 kts 322°
2026-04-30 22:33 23.74711 -87.62313 34912 ft 446 kts 289°
2026-04-30 22:33 23.76740 -87.68692 34888 ft 447 kts 291°
2026-04-30 22:35 23.82114 -87.84456 34881 ft 447 kts 291°
2026-04-30 22:36 23.87498 -88.00253 34882 ft 446 kts 291°
2026-04-30 22:37 23.91782 -88.12865 34878 ft 445 kts 291°
2026-04-30 22:38 23.96071 -88.25532 34879 ft 445 kts 291°
2026-04-30 22:39 23.99269 -88.35003 34880 ft 446 kts 291°
2026-04-30 22:41 24.10753 -88.69195 34878 ft 445 kts 290°
2026-04-30 22:43 24.17096 -88.88205 34868 ft 446 kts 290°
2026-04-30 22:44 24.21358 -89.01026 34870 ft 447 kts 290°
2026-04-30 22:45 24.27707 -89.20207 34869 ft 444 kts 291°
2026-04-30 22:47 24.33999 -89.39303 34872 ft 444 kts 290°
2026-04-30 22:48 24.38177 -89.52034 34866 ft 442 kts 290°
2026-04-30 22:49 24.40148 -89.58053 34869 ft 443 kts 290°